Midland, MI

7:45 AM EDT on August 19, 2017 (GMT -0400)
Barstow

Weather History for KIKW - October, 2013

Change the Weather History Date:

Wednesday, October 16, 2013

  Actual Average (KMBS) Record (KMBS)
Temperature  
Mean Temperature 53 °F -  
Max Temperature 59 °F 57 °F 73 °F (1996)
Min Temperature 47 °F 37 °F 30 °F (2002)
Degree Days  
Heating Degree Days 12    
Growing Degree Days 3 (Base 50)    
Moisture  
Dew Point 51 °F    
Average Humidity 89    
Maximum Humidity 99    
Minimum Humidity 80    
Precipitation  
Precipitation 0.00 in - - ()
Sea Level Pressure  
Sea Level Pressure 29.79 in    
Wind  
Wind Speed 6 mph (SW)    
Max Wind Speed 16 mph    
Max Gust Speed 23 mph    
Visibility 9 miles    
Events Rain    
Averages and records for this station are not official NWS values.
T = Trace of Precipitation, MM = Missing Value Source: NWS Daily Summary

Daily Weather History Graph

Daily Weather History Graph

Search for Another Location

Airport or City:

Trip Planner

Search our weather history database for the weather conditions in past years. The results will help you decide how hot, cold, wet, or windy it might be!

Date:

Astronomy

Oct. 16, 2013 Rise Set
Actual Time 7:52 AM EDT 6:51 PM EDT
Civil Twilight 7:23 AM EDT 7:20 PM EDT
Nautical Twilight 6:50 AM EDT 7:53 PM EDT
Astronomical Twilight 6:17 AM EDT 8:26 PM EDT
Moon 5:33 PM EDT (10/16) 5:15 AM EDT (10/16)
Length of Visible Light 11h 56m
Length of Day
10h 58m
Waxing Gibbous, 94% of the Moon is Illuminated
Oct 16
Waxing Gibbous
Oct 18
Full
Oct 26
Last Quarter
Nov 3
New
Nov 10
First Quarter

Hourly Weather History & Observations

Time (EDT) Temp. Dew Point Humidity Pressure Visibility Wind Dir Wind Speed Gust Speed Precip Events Conditions
12:13 AM 59.2 °F 58.5 °F 97% 29.77 in 4.0 mi SSW 4.6 mph - N/A   Overcast
12:33 AM 59.0 °F 58.8 °F 99% 29.77 in 3.0 mi SSW 3.5 mph - N/A   Overcast
12:53 AM 58.6 °F 58.3 °F 99% 29.77 in 3.0 mi SSW 3.5 mph - N/A   Overcast
1:13 AM 57.9 °F 57.6 °F 99% 29.76 in 3.0 mi Calm Calm - N/A   Scattered Clouds
1:33 AM 57.2 °F 56.8 °F 99% 29.76 in 2.5 mi South 4.6 mph - N/A   Scattered Clouds
1:53 AM 58.8 °F 58.5 °F 99% 29.76 in 4.0 mi South 6.9 mph - N/A   Mostly Cloudy
2:13 AM 59.0 °F 58.5 °F 98% 29.76 in 5.0 mi South 5.8 mph - N/A   Mostly Cloudy
2:33 AM 59.4 °F 59.0 °F 99% 29.76 in 5.0 mi SSW 4.6 mph - N/A   Overcast
2:53 AM 59.9 °F 59.2 °F 97% 29.76 in 5.0 mi SW 5.8 mph - N/A   Overcast
3:14 AM 58.8 °F 58.1 °F 97% 29.76 in 5.0 mi WSW 4.6 mph - N/A   Mostly Cloudy
3:33 AM 59.2 °F 57.0 °F 93% 29.77 in 10.0 mi WSW 9.2 mph - N/A   Mostly Cloudy
3:53 AM 58.1 °F 56.3 °F 94% 29.77 in 10.0 mi WSW 6.9 mph - N/A   Mostly Cloudy
4:13 AM 56.7 °F 53.2 °F 88% 29.77 in 10.0 mi WSW 9.2 mph 17.3 mph N/A   Scattered Clouds
4:33 AM 54.9 °F 50.4 °F 85% 29.77 in 10.0 mi WSW 8.1 mph - N/A   Clear
4:54 AM 53.2 °F 49.1 °F 86% 29.77 in 10.0 mi WSW 5.8 mph - N/A   Clear
5:13 AM 51.3 °F 48.6 °F 90% 29.78 in 10.0 mi Calm Calm - N/A   Clear
5:33 AM 50.4 °F 48.2 °F 92% 29.77 in 10.0 mi SSW 4.6 mph - N/A   Clear
5:53 AM 49.3 °F 47.7 °F 94% 29.77 in 10.0 mi Calm Calm - N/A   Clear
6:13 AM 49.5 °F 47.8 °F 94% 29.77 in 10.0 mi Calm Calm - N/A   Clear
6:33 AM 48.7 °F 47.1 °F 94% 29.77 in 10.0 mi South 3.5 mph - N/A   Clear
6:53 AM 48.2 °F 46.8 °F 95% 29.78 in 10.0 mi SSW 3.5 mph - N/A   Clear
7:13 AM 47.7 °F 46.6 °F 96% 29.78 in 10.0 mi SSW 3.5 mph - N/A   Clear
7:33 AM 48.0 °F 47.1 °F 97% 29.78 in 10.0 mi SSW 4.6 mph - N/A   Mostly Cloudy
7:53 AM 48.2 °F 46.8 °F 95% 29.78 in 10.0 mi South 4.6 mph - N/A   Scattered Clouds
8:11 AM 48.6 °F 47.5 °F 96% 29.78 in 10.0 mi South 5.8 mph - N/A   Mostly Cloudy
8:35 AM 50.0 °F 48.2 °F 94% 29.78 in 10.0 mi South 8.1 mph - N/A   Overcast
8:40 AM 49.5 °F 47.8 °F 94% 29.77 in 10.0 mi South 8.1 mph - N/A   Mostly Cloudy
8:53 AM 50.5 °F 48.6 °F 93% 29.78 in 10.0 mi SW 8.1 mph - N/A   Scattered Clouds
9:13 AM 52.7 °F 49.1 °F 88% 29.79 in 10.0 mi SW 9.2 mph - N/A   Mostly Cloudy
9:34 AM 52.7 °F 48.6 °F 86% 29.78 in 10.0 mi SW 10.4 mph - N/A   Overcast
9:53 AM 52.7 °F 48.6 °F 86% 29.78 in 10.0 mi SW 8.1 mph - N/A   Overcast
10:13 AM 52.7 °F 48.6 °F 86% 29.78 in 10.0 mi SW 10.4 mph - N/A   Overcast
10:33 AM 53.6 °F 48.7 °F 84% 29.78 in 10.0 mi SW 13.8 mph 19.6 mph N/A   Overcast
10:53 AM 53.6 °F 48.4 °F 82% 29.79 in 10.0 mi SW 9.2 mph 21.9 mph N/A   Overcast
11:13 AM 54.5 °F 48.4 °F 80% 29.79 in 10.0 mi SW 15.0 mph 20.7 mph N/A   Overcast
11:33 AM 54.3 °F 48.4 °F 80% 29.79 in 10.0 mi SW 10.4 mph 17.3 mph N/A   Overcast
11:53 AM 54.5 °F 48.6 °F 80% 29.79 in 10.0 mi SW 11.5 mph 17.3 mph N/A   Overcast
12:13 PM 54.5 °F 48.4 °F 80% 29.79 in 10.0 mi SW 9.2 mph 18.4 mph N/A   Overcast
12:34 PM 54.5 °F 48.4 °F 80% 29.80 in 10.0 mi SW 10.4 mph - N/A   Overcast
12:53 PM 54.5 °F 48.7 °F 81% 29.79 in 10.0 mi SW 15.0 mph 23.0 mph N/A   Overcast
1:13 PM 54.5 °F 48.9 °F 81% 29.79 in 10.0 mi SW 15.0 mph 20.7 mph N/A   Overcast
1:33 PM 54.5 °F 49.1 °F 82% 29.80 in 10.0 mi SW 16.1 mph 20.7 mph N/A   Overcast
1:53 PM 54.5 °F 48.9 °F 81% 29.79 in 10.0 mi SW 13.8 mph 18.4 mph N/A   Overcast
2:14 PM 54.5 °F 48.4 °F 80% 29.79 in 10.0 mi SW 11.5 mph 16.1 mph N/A   Overcast
2:33 PM 54.5 °F 48.7 °F 81% 29.79 in 10.0 mi WSW 10.4 mph 16.1 mph N/A   Overcast
2:53 PM 54.3 °F 49.1 °F 83% 29.79 in 10.0 mi SW 12.7 mph 19.6 mph N/A   Overcast
3:14 PM 53.6 °F 49.5 °F 86% 29.78 in 5.0 mi SW 11.5 mph 17.3 mph N/A   Overcast
3:33 PM 53.6 °F 50.4 °F 89% 29.79 in 4.0 mi SW 13.8 mph 18.4 mph N/A Rain Light Rain
3:54 PM 54.0 °F 52.0 °F 93% 29.79 in 7.0 mi SW 11.5 mph 18.4 mph N/A   Overcast
4:13 PM 54.5 °F 51.4 °F 89% 29.79 in 10.0 mi SW 9.2 mph - N/A   Overcast
4:33 PM 54.5 °F 50.9 °F 88% 29.78 in 10.0 mi WSW 9.2 mph 16.1 mph N/A   Overcast
4:54 PM 55.6 °F 50.9 °F 84% 29.79 in 10.0 mi SW 11.5 mph - N/A   Overcast
5:13 PM 54.7 °F 50.2 °F 85% 29.79 in 10.0 mi SW 10.4 mph 17.3 mph N/A   Mostly Cloudy
5:34 PM 54.5 °F 50.0 °F 85% 29.79 in 10.0 mi SW 6.9 mph 10.4 mph N/A   Overcast
5:54 PM 54.5 °F 50.2 °F 85% 29.79 in 10.0 mi SW 8.1 mph - N/A   Overcast
6:13 PM 54.5 °F 50.2 °F 85% 29.79 in 10.0 mi WSW 8.1 mph - N/A   Overcast
6:34 PM 54.7 °F 50.2 °F 85% 29.80 in 10.0 mi WSW 8.1 mph - N/A   Overcast
6:54 PM 54.5 °F 50.0 °F 85% 29.80 in 10.0 mi WSW 5.8 mph - N/A   Overcast
7:13 PM 54.5 °F 50.0 °F 85% 29.81 in 10.0 mi WSW 6.9 mph - N/A   Overcast
7:24 PM 54.5 °F 50.0 °F 85% 29.81 in 10.0 mi WSW 5.8 mph - N/A   Overcast
7:53 PM 54.5 °F 50.0 °F 85% 29.82 in 10.0 mi WSW 5.8 mph - N/A   Overcast
8:13 PM 54.3 °F 49.8 °F 85% 29.83 in 10.0 mi WSW 6.9 mph - N/A   Overcast
8:34 PM 54.0 °F 49.6 °F 85% 29.83 in 10.0 mi WSW 6.9 mph - N/A   Overcast
8:53 PM 53.6 °F 49.8 °F 87% 29.84 in 10.0 mi WSW 6.9 mph - N/A   Overcast
9:14 PM 53.6 °F 49.1 °F 85% 29.84 in 10.0 mi West 5.8 mph - N/A   Overcast
9:33 PM 53.1 °F 48.9 °F 86% 29.85 in 10.0 mi West 5.8 mph - N/A   Overcast
9:53 PM 52.9 °F 48.6 °F 85% 29.86 in 10.0 mi West 4.6 mph - N/A   Overcast
10:14 PM 52.7 °F 48.7 °F 86% 29.86 in 10.0 mi North - - N/A   Overcast
10:33 PM 52.7 °F 49.1 °F 88% 29.86 in 10.0 mi Calm Calm - N/A   Overcast
10:53 PM 52.5 °F 49.1 °F 88% 29.87 in 10.0 mi West 3.5 mph - N/A   Overcast
11:13 PM 52.0 °F 48.2 °F 87% 29.87 in 10.0 mi Calm Calm - N/A   Overcast
11:34 PM 50.9 °F 47.5 °F 88% 29.87 in 10.0 mi West 3.5 mph - N/A   Mostly Cloudy
11:54 PM 50.7 °F 48.2 °F 91% 29.87 in 10.0 mi West 3.5 mph - N/A   Mostly Cloudy